{"data":{"norad_id":57735,"epoch":"2026-09-20T10:39:14.592960Z","epoch_age_seconds":136125,"freshness":"FRESH","line1":"1 57735U 23131D   26263.44391890 -.00000189  00000+0  26862-5 0  9991","line2":"2 57735  43.0065 160.0706 0002497 255.7877 104.2698 15.27582617169617","mean_motion":15.27582617,"eccentricity":0.0002497,"inclination_deg":43.0065,"raan_deg":160.0706,"arg_perigee_deg":255.7877,"mean_anomaly_deg":104.2698,"bstar":2.6862e-6,"rev_number":16961,"period_min":94.266587219223,"perigee_km":481.3280235999,"apogee_km":484.75449602285,"semimajor_km":6861.1782598114,"source":"CELESTRAK","updated_at":"2026-09-21T09:00:33.678731Z"}}